Weather Roundup
Issued by NWS Springfield, MO

Home | Current Version | Previous Version | Text Only | Print | Product List | Glossary On
Versions: 1 2 3 4 5 6 7 8 9 10 11 12 13 14 15 16 17 18 19 20 21 22 23 24 25 26 27 28 29 30 31 32 33 34 35 36 37 38 39 40 41 42 43 44 45 46 47 48 49 50
000
NZUS99 KSGF 261407
HRRSGF

HOURLY WEATHER
NATIONAL WEATHER SERVICE SPRINGFIELD MO
900 AM CDT SUN MAR 26 2017

......SGF CWA......

CITY           SKY/WX    TMP DP  RH WIND       PRES   REMARKS
SPRINGFIELD    PTSUNNY   49  45  86 E6        29.90F
JOPLIN         PTSUNNY   49  46  90 SW3       29.94R
WEST PLAINS    CLOUDY    48  46  93 W6        29.95S
ROLLA          CLOUDY    49  48  97 W13       29.90S
OSAGE BEACH    CLOUDY   N/A N/A N/A W8        29.93R
BRANSON        PTSUNNY   48  45  87 CALM      29.94S

......SURROUNDING SGF CWA......

CITY           SKY/WX    TMP DP  RH WIND       PRES   REMARKS
CHANUTE        CLOUDY    47  44  90 SW3       29.94R
PARSONS        CLOUDY    48  43  82 SW3       29.95R
COFFEYVILLE    CLOUDY    49  44  83 VRB5      29.95R
EMPORIA        CLOUDY    45  45 100 CALM      29.92R FOG
GROVE OK       SUNNY     48  45  87 S3        29.96R
ROGERS AR      CLOUDY    46  43  89 SE6       29.96R
SILOAM SPRINGS CLOUDY    45  41  87 CALM      29.95S VSB<1/4
HARRISON AR    PTSUNNY   50  45  83 SW6       29.95R
NEAR YELLVILLE MOSUNNY   54  43  66 NW3       29.93S

......KANSAS AND MISSOURI......

CITY           SKY/WX    TMP DP  RH WIND       PRES   REMARKS
KANSAS CTY INT CLOUDY    44  42  93 NW3       29.89F
DOWNTOWN KC    CLOUDY    46  42  86 NW3       29.91R
COLUMBIA       CLOUDY    48  48 100 W10       29.90R FOG
SEDALIA        CLOUDY    48  32  53 W9        29.92R HAZE
ST JOSEPH      CLOUDY    44  43  96 N7        29.90F
ST LOUIS       CLOUDY    54  47  77 SW10      29.90R
SPIRIT OF STL  LGT RAIN  51  48  89 SW8       29.90R
KIRKSVILLE     CLOUDY    45  44  97 W9        29.87R
WICHITA        CLOUDY    44  43  96 S5        29.91S FOG
TOPEKA         CLOUDY    45  43  93 CALM      29.93R
OLATHE         CLOUDY    44  42  93 W6        29.92R

......TENNESSEE......

CITY           SKY/WX    TMP DP  RH WIND       PRES   REMARKS
MEMPHIS        MOSUNNY   61  58  90 S9        29.98R
NASHVILLE      CLOUDY    61  57  87 S9        30.02R

......ARKANSAS.......

CITY           SKY/WX    TMP DP  RH WIND       PRES   REMARKS
FAYETTEVILLE   FOG       44  44 100 CALM      29.95R VSB 1
FT SMITH       SUNNY     51  47  86 CALM      29.96R
LITTLE ROCK    MOSUNNY   53  50  89 S5        29.99R

......OKLAHOMA.......

CITY           SKY/WX    TMP DP  RH WIND       PRES   REMARKS
TULSA          CLOUDY    47  44  90 E3        29.94R
PONCA CITY     CLOUDY    47  42  83 SE7       29.93R
MCALESTER      MOSUNNY   52  46  80 CALM      29.94R
OKLAHOMA CITY  PTSUNNY   50  45  83 SE10      29.87S

......IOWA............

CITY           SKY/WX    TMP DP  RH WIND       PRES   REMARKS
DES MOINES     DRIZZLE   42  40  92 N8        29.87R FOG
QUAD CITIES    FOG       52  50  93 E3        29.81S VSB 3/4

......ILLINOIS........

CITY           SKY/WX    TMP DP  RH WIND       PRES   REMARKS
QUINCY         LGT RAIN  48  47  96 W12       29.85R FOG
CHICAGO        CLOUDY    52  50  93 SE8       29.84F FOG




USA.gov is the U.S. government's official web portal to all federal, state and local government web resources and services.